Location: Marsån
(66.4167°N, 22.2833°E)
Time: 10:27:21
(UTC+00:00)

IDEFIX/ARIANE 42P - Pass Details

Date: 24 February 2024
Orbit: 782 x 801 km, 98.5° (Epoch: 15 April)

Event Time Altitude Azimuth Distance (km) Brightness Sun altitude
Rises 23:03:10 0° 18° (NNE) 3,322 6.8 -32.9°
Reaches altitude 10° 23:06:03 10° 33° (NNE) 2,385 5.7 -32.8°
Enters shadow 23:09:30 22° 74° (ENE) 1,703 4.4 -32.8°
